Location: Gull Harbor
(47.1000°N, 122.9000°W)
Time: 13:30:59
(UTC-07:00)

Envisat - Pass Details

Date: 24 March 2019
Orbit: 764 x 766 km, 98.1° (Epoch: 14 October)

Event Time Altitude Azimuth Distance (km) Brightness Sun altitude
Rises 20:24:27 0° 188° (S) 3,217 6.2 -10.0°
Reaches altitude 10° 20:26:55 10° 197° (SSW) 2,296 5.5 -10.4°
Maximum altitude 20:31:34 36° 264° (W) 1,193 4.7 -11.2°
Drops below altitude 10° 20:36:16 10° 331° (NNW) 2,313 6.2 -12.0°
Sets 20:38:46 0° 340° (NNW) 3,244 6.8 -12.4°
